Temperature
27 26 26 26 24 22 24 25 25 25 24 24 24 23 23 22 21 19 19 19 20 20 20 19 19 19 19 19 19 19 19 19 19 18 18 18 18 18 18 18 18 18 18 18 18 18 18 18 17
28 27 26 26 23 22 24 25 25 25 24 24 24 23 22 21 20 19 19 20 20 20 20 20 19 19 19 19 19 19 19 18 18 18 18 18 18 18 18 18 18 18 18 18 18 18 18 18 17
28 27 27 23 23 23 24 25 25 25 25 25 24 23 22 21 20 20 20 20 21 20 20 20 19 19 19 19 19 19 19 18 18 18 18 18 18 18 18 18 18 18 18 18 18 18 18 18 17
28 27 27 24 24 25 26 26 26 25 25 24 24 23 22 22 21 21 21 21 21 20 20 20 20 19 19 19 19 19 19 18 18 18 18 18 18 18 18 18 18 18 18 18 18 18 18 17 17
28 28 24 24 25 26 27 27 26 25 24 24 23 22 22 22 22 21 21 21 21 21 20 20 20 20 19 19 19 19 19 19 18 18 18 18 18 18 18 18 18 18 18 18 18 18 18 17 17
29 26 24 24 26 27 27 26 25 24 23 23 23 22 21 21 21 21 21 21 21 21 21 20 20 20 19 19 19 19 19 19 19 18 18 18 18 18 18 18 18 18 18 18 18 18 18 17 17
28 25 25 25 26 26 27 26 25 24 24 23 23 22 21 21 21 21 21 21 21 21 21 20 20 20 19 19 19 19 19 19 18 18 18 18 18 18 18 18 18 18 18 18 18 18 18 17 17
30 25 26 26 26 26 27 27 26 25 24 24 23 22 21 21 21 21 21 21 21 20 20 20 20 20 20 19 19 19 19 19 18 18 18 18 18 18 18 18 18 18 18 18 18 18 18 17 17
30 25 25 26 27 26 27 27 26 25 24 24 24 23 22 22 21 21 21 20 20 20 20 20 20 20 19 19 19 19 19 18 18 18 18 18 18 18 18 18 18 18 18 18 18 18 18 17 17
29 25 27 28 28 27 28 27 26 25 24 23 23 23 22 22 22 21 21 20 20 20 19 19 20 19 19 19 19 19 19 18 18 18 18 18 18 18 18 18 18 18 18 18 18 18 18 18 17
29 27 29 29 29 29 28 27 26 25 23 23 23 22 22 22 22 22 21 21 20 20 20 19 19 19 19 19 19 19 19 18 18 18 18 18 18 18 18 18 18 18 18 18 18 18 18 18 18
29 30 31 30 29 29 28 27 26 25 25 25 24 23 23 22 22 22 21 21 20 20 20 19 19 19 19 19 19 19 19 18 18 18 18 18 18 18 18 18 18 18 18 18 18 18 18 18 18
29 30 30 30 30 29 28 27 26 25 25 25 24 24 23 23 22 22 22 21 21 20 20 20 19 19 19 19 19 18 18 18 18 18 18 18 18 18 18 18 18 18 18 18 18 18 18 18 18
30 30 30 30 29 29 27 26 26 25 25 24 24 24 23 23 23 22 21 21 21 20 20 20 19 19 19 19 19 19 18 18 18 18 18 18 18 18 18 18 18 18 18 18 18 18 18 18 18
31 29 29 29 29 28 27 26 25 25 25 24 24 23 23 23 23 22 22 21 21 20 20 20 20 19 19 19 19 19 18 18 18 18 18 18 18 18 18 18 18 18 18 18 18 18 17 17 18
28 27 27 28 28 28 26 25 25 25 25 24 23 23 23 23 22 22 22 21 21 21 20 20 20 19 19 19 19 19 18 18 18 18 18 18 18 18 18 18 18 18 18 18 18 18 18 18 18
26 26 27 28 29 28 26 25 26 25 25 24 24 23 23 22 22 22 22 21 21 21 20 20 20 20 19 19 19 18 18 18 18 18 18 18 18 18 18 18 18 18 18 18 18 18 18 18 18
26 26 27 27 28 28 26 25 26 25 25 24 24 23 23 22 22 22 22 21 21 21 20 20 20 19 19 19 19 19 18 18 18 18 18 18 18 18 18 18 18 18 18 18 18 18 18 18 18
28 28 27 28 28 27 26 25 25 25 25 24 23 23 23 23 22 22 22 21 21 21 20 20 20 19 19 19 19 19 18 18 18 18 18 18 18 18 18 18 18 18 18 18 18 18 18 18 18
28 27 27 28 28 27 25 25 25 25 24 24 23 23 23 22 22 22 22 21 21 21 20 20 20 19 19 19 19 19 18 18 18 18 18 18 18 18 18 18 18 18 18 18 18 18 18 18 18
28 27 27 27 27 26 26 24 24 25 25 24 24 23 23 23 22 22 22 21 21 21 20 20 20 19 19 19 19 18 18 18 18 18 18 18 18 18 18 18 18 18 18 18 18 18 18 18 18
28 29 29 28 26 24 25 23 23 23 24 23 23 23 23 23 23 22 22 21 21 21 20 20 20 19 19 19 19 19 18 18 18 18 18 18 18 18 18 18 18 18 18 18 18 17 17 17 17
29 30 29 28 25 24 23 23 23 23 23 22 23 23 23 23 23 22 22 22 21 21 20 20 20 19 19 19 18 18 18 18 18 18 18 18 18 18 18 18 18 18 18 18 17 17 17 17 17
30 27 26 23 22 23 24 23 23 22 23 23 23 23 23 23 23 23 22 22 21 21 20 20 20 19 19 19 18 18 18 18 18 18 18 18 18 18 18 18 17 17 17 17 17 17 17 17 17
28 24 23 24 22 23 23 23 22 23 24 24 23 23 23 23 23 22 22 22 21 21 20 20 20 19 19 19 18 18 18 18 18 18 18 18 18 18 18 18 17 17 17 17 17 17 17 17 17
27 24 23 24 23 22 23 23 23 24 25 25 24 24 23 23 23 23 22 22 21 21 21 20 20 20 19 19 19 18 18 18 18 18 18 18 18 18 18 18 17 17 17 17 17 17 17 17 17
28 25 23 21 22 22 22 23 23 24 24 24 24 23 23 23 23 23 22 22 22 21 21 20 20 20 19 19 18 18 18 18 18 18 18 18 18 18 17 17 17 17 17 17 17 17 17 17 17
28 25 22 22 22 22 23 22 22 23 23 23 23 23 23 23 23 23 23 22 22 21 21 20 20 20 19 19 18 18 18 18 18 18 18 18 18 18 18 17 17 17 17 17 17 17 17 17 17
28 27 22 20 21 21 22 22 23 23 22 22 23 23 23 24 23 23 22 22 22 21 20 20 20 19 19 19 18 18 18 18 18 18 18 18 18 18 17 17 17 17 17 16 16 16 16 16 16
27 26 23 23 22 20 21 22 24 23 23 23 23 23 23 24 23 23 22 22 21 21 20 20 19 19 19 19 18 18 18 18 18 17 17 17 17 17 17 17 17 17 17 16 16 16 16 16 16
Wind_Speed
6 6 3 1 5 6 8 7 10 11 8 10 13 12 11 8 7 8 4 12 13 10 11 14 14 15 14 14 14 14 14 14 15 15 15 15 15 15 15 16 16 16 16 16 16 15 15 15 15
4 5 2 4 7 7 7 9 14 15 13 14 14 15 11 9 10 11 7 12 13 12 12 13 15 15 14 14 14 14 14 14 14 14 14 15 15 15 15 15 15 15 15 15 15 14 14 14 14
4 3 3 5 6 7 6 10 16 15 12 10 8 8 7 8 11 8 11 15 12 10 12 14 15 15 14 14 13 13 13 14 14 14 14 14 14 14 14 14 14 14 14 14 13 13 13 13 12
2 3 5 7 9 8 10 12 14 14 11 10 10 8 5 7 7 12 17 16 14 9 12 15 15 15 14 14 13 13 13 13 13 13 13 14 14 14 14 14 13 13 13 12 12 12 12 12 12
2 4 7 7 9 9 11 13 13 12 7 10 11 9 6 6 17 20 17 16 15 10 11 14 15 15 14 13 13 13 13 13 13 13 13 13 13 13 13 13 12 12 12 11 11 11 11 11 11
3 4 6 8 10 9 9 12 16 17 16 13 12 10 5 11 18 17 16 14 14 13 12 14 16 15 14 13 13 12 12 12 12 12 12 12 12 13 12 12 12 11 10 10 10 10 10 10 10
5 5 6 9 10 9 9 11 13 14 15 10 10 7 5 10 14 16 14 13 12 12 11 10 13 14 14 13 12 12 12 12 12 12 11 11 12 12 11 11 11 10 10 9 9 9 8 8 8
6 6 7 7 10 8 8 9 12 14 10 12 8 7 7 10 14 16 14 12 11 9 8 8 10 11 11 11 12 12 12 11 11 11 11 11 11 11 10 9 10 10 9 8 8 7 6 6 6
6 7 6 7 9 8 10 13 9 9 11 6 5 7 11 16 17 15 12 9 9 9 7 7 8 9 10 10 11 11 11 11 10 10 11 10 8 8 8 8 9 9 8 7 5 4 4 3 3
6 7 7 8 10 11 12 13 9 8 10 9 11 11 13 14 15 15 13 11 10 10 8 6 7 8 9 8 9 8 8 9 8 8 8 8 7 7 7 8 8 7 6 5 3 3 2 1 1
6 8 7 8 11 13 12 11 9 11 9 11 15 15 14 13 12 12 11 11 10 10 10 9 8 8 8 6 8 6 6 7 7 9 9 8 7 6 6 5 5 5 4 3 2 2 2 2 1
6 5 8 9 12 13 12 10 8 8 10 14 15 15 13 12 11 11 10 10 9 9 9 9 8 6 6 7 6 6 5 5 5 8 10 8 5 5 5 4 4 4 3 3 3 2 3 3 3
7 5 7 9 11 12 14 11 9 8 13 14 14 13 12 12 10 9 10 10 9 9 8 8 8 7 6 6 5 6 5 6 6 7 9 9 6 5 5 4 4 5 5 4 3 3 2 2 3
4 5 6 9 10 10 14 10 8 10 16 15 14 12 11 11 10 9 9 9 9 9 8 7 7 6 6 5 4 4 6 7 6 5 7 9 8 6 5 4 4 5 6 6 5 4 3 2 2
5 6 4 4 6 7 12 8 8 14 16 14 13 11 10 9 10 11 11 10 9 9 8 7 7 6 6 5 4 4 6 6 5 5 7 8 8 8 6 4 4 5 6 5 3 3 2 2 2
5 5 2 1 4 5 9 7 8 13 15 13 12 11 10 10 10 11 11 10 9 9 8 7 7 6 5 4 4 3 5 5 5 6 6 7 8 8 6 3 3 5 5 4 2 2 1 1 1
4 2 1 2 3 5 6 6 9 12 14 12 12 11 10 8 8 8 10 9 9 9 8 6 5 5 5 4 3 3 3 3 4 5 5 6 7 8 6 3 3 4 3 2 3 2 2 2 1
2 2 1 2 2 5 7 7 10 11 12 12 11 10 10 9 9 9 9 9 9 8 7 6 5 5 4 3 3 2 2 1 2 4 5 5 6 7 6 4 3 3 2 1 2 2 2 2 2
5 3 3 3 3 4 7 7 9 10 10 9 8 9 9 8 7 8 9 9 8 7 6 6 5 5 4 3 3 2 2 1 1 2 4 5 6 6 6 3 2 2 2 3 3 2 2 1 1
3 3 1 1 2 4 5 4 5 8 11 10 10 10 9 8 8 8 8 8 8 8 7 6 6 6 5 3 3 3 2 2 2 1 3 5 6 6 6 4 3 3 2 2 2 2 2 1 2
1 5 5 4 2 5 7 4 1 2 6 8 9 9 9 11 11 10 9 8 8 8 8 7 6 6 5 4 3 2 2 1 0 1 2 3 5 6 5 5 4 4 3 3 3 3 3 2 2
3 4 5 5 4 0 4 2 3 2 4 6 6 7 9 9 10 9 8 8 8 8 7 7 6 6 5 5 4 4 3 3 3 3 2 2 3 5 5 5 5 4 3 4 4 3 3 3 2
4 2 4 4 4 3 3 5 4 1 4 6 7 9 9 10 10 10 9 8 8 7 7 6 6 5 5 5 5 4 3 2 1 1 2 2 2 3 4 5 4 4 3 3 3 3 3 3 3
2 7 8 7 5 2 2 4 4 5 7 8 8 10 10 10 10 8 7 7 6 6 6 5 6 5 4 5 5 5 4 3 2 2 2 1 1 1 2 3 3 3 3 3 3 3 3 3 3
7 7 4 5 5 3 2 3 6 6 8 10 12 10 9 9 9 8 8 7 7 7 6 6 6 4 4 4 4 4 4 4 3 3 3 2 1 1 2 2 2 2 3 3 3 3 3 3 3
4 10 8 4 4 3 4 0 5 4 6 8 9 9 11 10 9 9 10 9 8 8 7 6 6 4 4 4 4 3 3 3 2 3 3 2 2 2 2 2 2 2 2 3 2 2 2 2 3
4 4 9 7 3 2 3 3 5 3 6 7 8 9 11 11 10 10 9 9 8 8 8 8 7 5 4 4 3 3 3 3 2 2 2 2 2 2 1 2 1 1 1 1 2 1 2 2 2
7 7 6 6 4 1 2 2 4 5 6 7 9 11 11 10 10 10 9 8 8 7 7 7 6 6 4 4 3 3 3 2 2 2 1 1 2 1 1 1 1 1 1 1 2 1 1 2 1
2 3 6 5 6 7 3 6 7 12 11 11 11 12 13 12 11 9 8 7 7 7 7 7 6 5 4 4 3 3 3 2 2 2 2 1 1 1 1 2 2 1 1 1 1 1 1 2 1
7 8 8 6 3 6 5 6 5 11 10 11 11 10 11 11 10 10 9 8 7 7 6 6 6 5 4 4 3 4 3 3 2 1 1 1 1 1 1 2 2 2 1 1 1 1 1 2 2
Wind_Direction
181 172 171 112 59 62 81 88 94 83 66 68 79 82 80 68 98 125 144 133 130 128 126 121 118 114 111 108 106 103 101 101 100 101 101 101 102 103 104 104 104 105 106 108 109 110 112 113 115
176 165 140 58 83 83 79 90 87 93 113 103 84 82 76 73 92 117 127 135 131 130 127 124 121 116 113 110 108 106 105 106 106 105 105 104 103 104 106 108 108 107 108 109 109 110 112 113 115
179 173 90 68 91 109 105 98 104 101 97 90 90 71 71 106 117 131 141 138 129 123 125 127 123 119 116 113 111 109 107 107 107 108 108 107 106 106 109 110 110 110 110 111 111 112 113 114 114
142 76 56 82 96 110 118 120 117 109 85 75 87 75 71 112 122 135 138 136 127 123 127 129 126 123 120 118 116 113 112 111 110 110 110 110 110 110 110 111 112 112 112 112 113 113 116 117 116
76 74 68 84 98 108 116 118 117 104 90 92 94 102 91 92 121 134 138 136 133 132 132 133 130 129 126 123 121 119 117 115 113 113 113 114 113 112 113 115 115 114 114 114 115 115 114 115 115
63 73 86 99 103 101 107 115 108 103 110 109 108 106 101 123 129 138 139 138 139 140 139 139 137 136 134 130 127 125 123 121 120 119 118 118 116 113 114 118 119 119 119 118 117 116 115 115 114
119 108 118 117 108 105 117 118 120 124 127 129 128 107 116 131 137 138 138 137 139 141 141 141 142 141 140 137 134 131 129 128 126 125 125 123 122 122 121 122 124 124 124 122 119 119 117 117 116
141 111 104 113 115 119 122 107 123 129 122 135 134 128 151 152 136 133 134 134 137 142 145 145 143 143 144 144 142 139 138 138 136 134 133 130 129 128 127 127 129 129 127 126 124 124 123 120 116
110 95 120 139 130 134 123 110 109 106 122 138 117 132 146 139 132 129 130 131 143 149 154 155 150 151 152 153 152 150 148 148 146 144 141 134 128 130 134 139 136 133 134 135 134 135 135 127 120
104 119 158 157 139 138 127 121 122 106 104 101 109 120 129 133 135 137 143 148 153 159 166 164 166 166 164 162 154 160 159 159 157 156 150 148 147 148 148 151 144 146 146 148 162 172 169 151 126
114 136 143 125 127 129 125 118 109 117 124 142 141 143 141 139 140 146 153 154 157 160 164 166 171 169 167 158 163 174 170 174 179 177 171 162 157 156 151 153 154 164 167 169 210 226 233 219 229
90 108 120 124 126 126 127 126 119 131 152 153 148 147 143 144 150 153 154 154 150 151 158 161 156 157 163 160 169 177 174 181 185 183 178 166 156 156 162 172 183 189 186 196 214 224 230 232 245
85 88 99 116 115 123 120 124 123 129 137 140 143 144 148 151 156 157 154 151 148 148 151 156 147 153 159 155 166 169 174 181 185 176 175 166 162 166 171 180 193 207 204 197 207 224 227 238 249
129 106 111 117 110 116 118 122 115 141 142 146 149 153 156 157 158 150 147 148 150 151 149 148 150 155 148 148 150 158 167 173 168 167 170 168 165 167 171 177 192 209 212 206 203 207 205 209 195
90 76 64 102 105 120 111 104 143 151 148 152 156 156 154 161 160 157 160 157 155 153 147 150 156 155 148 146 150 150 164 165 163 167 170 169 166 166 168 173 187 204 206 205 196 189 177 182 183
48 55 56 303 122 140 114 142 164 153 149 155 163 162 158 167 168 163 161 157 155 150 149 158 157 155 155 143 138 137 154 155 162 165 168 172 172 168 163 167 191 201 190 184 182 173 154 175 185
36 90 212 273 184 150 118 148 165 158 154 158 161 163 162 165 168 167 162 158 156 154 155 159 148 154 154 138 133 127 132 148 165 169 174 180 178 170 167 177 190 189 177 175 187 172 170 181 214
229 166 203 209 211 120 121 145 157 165 160 159 157 158 160 168 175 167 160 158 153 152 154 153 150 157 149 131 117 110 112 143 154 174 186 185 184 179 172 180 187 182 158 176 169 167 175 184 202
187 169 172 216 191 114 121 135 158 158 154 152 154 158 164 171 171 159 158 155 148 149 152 154 153 161 150 143 142 145 167 196 189 201 197 195 193 187 177 175 177 173 176 196 184 159 166 207 171
159 136 186 279 161 125 109 106 149 155 165 167 167 169 168 156 150 156 157 156 157 159 161 159 162 167 170 169 167 166 169 200 205 211 218 209 201 194 189 178 183 187 182 183 182 160 163 214 167
241 179 187 170 69 74 99 34 77 142 147 161 168 170 171 168 164 162 162 164 162 166 171 172 169 167 174 171 145 124 94 60 76 219 238 230 209 199 193 187 184 187 180 193 202 182 172 201 232
276 218 165 134 103 69 110 135 286 176 147 157 159 166 179 173 160 162 162 163 171 177 171 166 169 168 170 162 155 160 167 186 215 206 212 237 218 202 197 197 196 194 187 195 208 192 185 183 216
217 163 122 125 115 72 46 115 266 196 161 180 176 180 179 171 160 161 164 166 169 168 166 168 165 169 171 169 172 168 178 201 210 182 198 236 244 218 211 200 194 195 194 203 205 193 193 188 191
111 61 45 48 68 52 241 141 240 211 187 176 179 184 174 163 155 154 154 150 153 153 154 156 159 170 174 175 176 176 179 179 167 174 186 223 244 248 242 201 188 194 197 202 201 199 199 199 188
77 81 41 8 18 260 277 124 240 219 177 170 179 178 164 153 150 152 153 161 164 162 159 157 159 166 176 174 174 179 179 175 182 188 193 201 212 234 234 197 184 196 202 198 195 192 207 200 195
153 133 151 181 201 279 352 197 266 220 162 157 163 156 149 153 160 163 165 167 169 168 163 159 164 171 175 174 174 171 174 173 184 187 185 202 211 228 231 198 190 201 195 193 189 187 205 197 207
145 158 161 134 126 71 334 330 344 66 113 130 139 142 153 162 164 166 170 167 168 170 170 169 169 171 175 172 167 158 159 165 176 181 183 208 224 215 195 174 171 184 185 173 152 170 208 195 204
162 155 97 109 131 128 310 266 217 188 166 152 152 158 162 166 167 169 171 173 173 173 167 162 164 173 173 173 174 167 164 160 157 144 161 203 217 195 168 147 136 145 164 154 142 158 207 177 201
174 121 111 114 141 145 187 260 216 191 177 166 170 170 169 168 167 166 170 173 160 158 160 161 162 160 165 171 168 157 157 162 162 170 181 188 190 149 130 129 115 120 137 165 163 189 169 171 180
181 182 152 147 187 150 156 254 231 178 170 165 169 169 169 165 164 163 163 154 148 153 155 157 160 164 172 168 156 153 149 151 159 176 173 133 108 84 91 103 104 112 116 135 156 181 180 175 162
Height
1500 1500 1500 1501 1505 1518 1522 1517 1510 1510 1513 1514 1513 1515 1518 1522 1528 1538 1536 1536 1537 1537 1538 1539 1539 1539 1539 1539 1539 1540 1540 1540 1540 1540 1541 1541 1541 1541 1542 1542 1542 1543 1544 1545 1546 1547 1548 1549 1550
1500 1500 1502 1503 1515 1533 1528 1516 1515 1514 1516 1516 1517 1519 1520 1526 1529 1532 1534 1537 1538 1539 1539 1540 1540 1541 1541 1541 1541 1541 1542 1542 1542 1542 1542 1543 1543 1543 1543 1544 1545 1545 1546 1547 1548 1549 1550 1551 1552
1501 1501 1503 1507 1520 1529 1527 1517 1516 1518 1518 1516 1519 1522 1525 1529 1532 1533 1536 1538 1539 1540 1541 1541 1542 1542 1542 1543 1543 1543 1544 1544 1544 1544 1544 1545 1545 1545 1546 1546 1547 1548 1548 1549 1550 1551 1552 1553 1554
1502 1503 1505 1514 1522 1517 1515 1515 1515 1517 1519 1519 1520 1525 1529 1532 1533 1534 1537 1539 1540 1541 1542 1543 1543 1544 1544 1544 1545 1545 1545 1546 1546 1546 1546 1546 1547 1547 1548 1548 1549 1550 1550 1551 1552 1553 1554 1555 1556
1503 1503 1512 1522 1520 1514 1513 1514 1515 1517 1520 1523 1522 1527 1532 1534 1534 1536 1538 1540 1541 1542 1543 1544 1544 1545 1545 1546 1546 1546 1547 1547 1548 1548 1548 1548 1549 1549 1550 1550 1551 1552 1552 1553 1554 1555 1556 1557 1558
1504 1506 1522 1529 1521 1515 1515 1516 1516 1519 1523 1525 1526 1529 1534 1536 1536 1538 1540 1541 1542 1543 1544 1545 1546 1546 1547 1547 1548 1548 1549 1549 1549 1550 1550 1550 1551 1551 1552 1553 1553 1554 1554 1555 1556 1557 1558 1559 1560
1504 1510 1522 1522 1522 1519 1517 1517 1517 1521 1524 1526 1527 1530 1536 1538 1538 1539 1541 1543 1544 1545 1545 1546 1547 1548 1548 1549 1549 1550 1550 1551 1551 1552 1552 1552 1553 1553 1554 1555 1555 1556 1557 1557 1558 1559 1560 1561 1562
1501 1509 1519 1521 1521 1521 1517 1517 1519 1520 1524 1528 1528 1530 1535 1537 1539 1541 1543 1544 1545 1546 1547 1547 1548 1549 1550 1550 1551 1551 1552 1553 1553 1553 1554 1554 1555 1555 1556 1557 1557 1558 1559 1560 1560 1561 1562 1563 1564
1501 1513 1523 1520 1519 1519 1516 1518 1522 1523 1525 1528 1529 1530 1534 1537 1539 1541 1544 1545 1546 1547 1548 1549 1549 1550 1551 1551 1552 1553 1553 1554 1554 1555 1555 1556 1557 1557 1558 1559 1559 1560 1561 1561 1562 1563 1564 1565 1565
1500 1515 1515 1508 1509 1513 1515 1517 1521 1525 1527 1529 1531 1534 1536 1538 1540 1541 1543 1545 1546 1547 1549 1550 1550 1551 1551 1552 1553 1554 1554 1555 1556 1556 1557 1557 1558 1559 1559 1560 1561 1562 1562 1563 1563 1564 1565 1566 1567
1499 1506 1505 1505 1507 1510 1515 1518 1521 1524 1529 1529 1531 1534 1537 1539 1541 1542 1544 1545 1546 1547 1548 1549 1550 1551 1552 1553 1554 1554 1555 1556 1557 1557 1558 1558 1559 1560 1560 1561 1562 1563 1564 1564 1565 1565 1566 1567 1568
1500 1502 1503 1506 1508 1510 1514 1518 1522 1523 1527 1529 1531 1533 1536 1539 1540 1542 1543 1545 1546 1547 1548 1550 1550 1551 1552 1553 1554 1555 1556 1557 1557 1558 1559 1559 1560 1560 1561 1562 1563 1564 1565 1565 1566 1566 1567 1568 1568
1503 1505 1505 1507 1508 1510 1514 1518 1521 1525 1528 1531 1533 1535 1537 1539 1541 1542 1544 1545 1546 1547 1548 1550 1551 1551 1552 1554 1554 1555 1556 1557 1558 1558 1559 1560 1560 1561 1562 1562 1563 1564 1565 1566 1566 1567 1567 1568 1568
1504 1505 1507 1508 1509 1512 1514 1519 1522 1527 1529 1532 1534 1536 1538 1539 1541 1542 1544 1545 1546 1547 1548 1550 1550 1551 1552 1553 1554 1555 1556 1557 1557 1558 1559 1560 1561 1561 1562 1562 1563 1564 1565 1566 1566 1567 1568 1568 1569
1504 1507 1510 1511 1511 1515 1516 1525 1524 1526 1529 1532 1534 1536 1538 1539 1540 1541 1542 1544 1545 1546 1548 1549 1550 1551 1552 1553 1554 1555 1555 1557 1557 1558 1559 1560 1561 1561 1562 1562 1563 1563 1564 1565 1566 1566 1567 1568 1568
1507 1515 1523 1515 1513 1515 1520 1534 1526 1527 1529 1532 1534 1536 1537 1538 1540 1541 1542 1543 1544 1546 1547 1549 1550 1551 1552 1553 1554 1554 1555 1556 1557 1558 1558 1559 1560 1561 1561 1562 1562 1563 1564 1564 1565 1566 1566 1567 1567
1519 1529 1528 1520 1512 1514 1520 1530 1526 1527 1528 1530 1533 1535 1537 1539 1540 1541 1541 1542 1543 1545 1546 1548 1549 1550 1551 1552 1553 1554 1554 1555 1556 1557 1557 1558 1559 1560 1560 1561 1562 1562 1563 1563 1564 1564 1565 1566 1566
1529 1528 1525 1523 1514 1514 1521 1525 1525 1528 1529 1530 1532 1534 1536 1538 1539 1540 1541 1542 1543 1544 1546 1547 1548 1549 1550 1551 1552 1552 1553 1554 1555 1555 1556 1557 1558 1559 1559 1560 1561 1561 1562 1562 1563 1563 1564 1564 1565
1515 1520 1524 1520 1513 1517 1522 1525 1526 1527 1530 1532 1533 1534 1536 1537 1539 1540 1541 1542 1543 1544 1545 1545 1547 1548 1549 1550 1550 1551 1552 1553 1554 1554 1555 1556 1557 1557 1558 1559 1559 1560 1560 1561 1562 1562 1562 1563 1563
1512 1521 1523 1518 1513 1519 1525 1528 1526 1527 1528 1530 1532 1533 1535 1537 1539 1540 1541 1542 1543 1543 1544 1545 1546 1547 1548 1549 1549 1550 1551 1552 1553 1553 1554 1555 1555 1556 1556 1557 1558 1558 1559 1559 1560 1560 1560 1561 1562
1514 1519 1521 1521 1518 1520 1527 1537 1533 1529 1528 1530 1532 1533 1535 1536 1537 1539 1541 1541 1542 1543 1543 1544 1545 1546 1547 1548 1549 1549 1550 1550 1551 1552 1552 1553 1553 1554 1555 1555 1556 1557 1557 1557 1558 1558 1558 1559 1560
1518 1507 1509 1515 1527 1538 1533 1555 1541 1534 1532 1531 1533 1534 1535 1536 1537 1538 1540 1541 1542 1542 1543 1543 1545 1545 1546 1547 1547 1548 1548 1548 1549 1550 1551 1551 1552 1552 1553 1553 1554 1555 1555 1555 1555 1556 1556 1556 1556
1507 1501 1507 1514 1527 1539 1539 1551 1548 1536 1536 1533 1532 1533 1534 1534 1536 1538 1539 1540 1541 1542 1543 1543 1544 1545 1545 1546 1546 1547 1547 1547 1548 1549 1549 1550 1550 1550 1551 1551 1552 1552 1552 1553 1553 1553 1553 1553 1554
1499 1506 1515 1526 1537 1554 1543 1549 1550 1539 1532 1531 1531 1532 1533 1534 1536 1538 1539 1541 1541 1542 1543 1543 1543 1544 1544 1544 1545 1545 1546 1546 1547 1547 1547 1548 1548 1548 1549 1549 1549 1550 1550 1550 1550 1550 1550 1551 1551
1504 1528 1551 1554 1563 1559 1541 1545 1544 1525 1523 1524 1527 1530 1532 1534 1536 1538 1539 1540 1541 1541 1542 1543 1543 1543 1543 1544 1544 1544 1545 1545 1546 1546 1546 1546 1546 1546 1546 1547 1547 1547 1547 1547 1547 1547 1547 1548 1548
1509 1524 1551 1564 1567 1560 1544 1547 1535 1520 1519 1521 1524 1528 1531 1533 1535 1536 1538 1539 1540 1541 1541 1542 1542 1542 1543 1543 1543 1543 1544 1544 1544 1544 1545 1545 1545 1545 1545 1545 1545 1544 1544 1544 1545 1545 1545 1545 1545
1508 1520 1524 1545 1552 1562 1555 1543 1530 1521 1522 1523 1525 1528 1530 1532 1533 1535 1536 1538 1539 1540 1540 1541 1541 1542 1542 1542 1542 1542 1543 1543 1543 1543 1544 1544 1543 1543 1543 1542 1542 1542 1542 1542 1542 1542 1542 1542 1542
1499 1508 1528 1544 1561 1568 1558 1551 1545 1531 1527 1525 1525 1527 1529 1530 1532 1534 1535 1537 1538 1539 1540 1540 1541 1541 1542 1542 1542 1542 1542 1543 1542 1542 1542 1542 1542 1541 1541 1541 1540 1540 1540 1540 1540 1539 1539 1539 1540
1503 1509 1523 1540 1545 1562 1568 1556 1523 1523 1521 1522 1523 1524 1526 1528 1530 1532 1534 1536 1537 1539 1539 1540 1540 1541 1541 1541 1541 1541 1542 1542 1542 1541 1541 1541 1540 1540 1539 1539 1539 1538 1538 1537 1537 1537 1537 1537 1537
1495 1503 1517 1536 1544 1548 1556 1548 1512 1514 1517 1519 1521 1523 1525 1526 1529 1531 1533 1535 1536 1538 1538 1539 1540 1540 1541 1541 1541 1541 1541 1541 1541 1541 1540 1540 1539 1539 1539 1538 1537 1537 1536 1536 1535 1535 1535 1535 1535